Regional Weather Roundup
Issued by NWS

Home | Current Version | Previous Version | Text Only | Print | Product List | Glossary Off
Versions: 1 2 3 4 5 6 7 8 9 10 11 12 13 14 15 16 17 18 19 20 21 22 23 24 25 26 27 28 29 30 31 32 33 34 35 36 37 38 39 40 41 42 43 44 45 46 47 48 49 50

000
ASUS43 KMKX 300321
RWRWI

WISCONSIN REGIONAL WEATHER ROUNDUP
NATIONAL WEATHER SERVICE MILWAUKEE/SULLIVAN WI
1000 PM CDT TUE JUL 29 2014

NOTE: "FAIR" INDICATES FEW OR NO CLOUDS BELOW 12,000 FEET WITH NO
SIGNIFICANT WEATHER AND/OR OBSTRUCTIONS TO VISIBILITY.

WIZ001-002-006>008-014>016-023>028-300400-
NORTHWEST WISCONSIN

CITY           SKY/WX    TMP DP  RH WIND       PRES   REMARKS
SUPERIOR ARPT  MOCLDY    56  56  99 CALM      30.04S
ASHLAND        MOCLDY    57  55  93 W6        30.03R
HAYWARD        LGT RAIN  59  58  96 E3        30.04F
SIREN          CLOUDY    62  58  86 N10G28    30.09R
RICE LAKE      MOCLDY    60  58  93 N5        30.07R FOG
LADYSMITH      MOCLDY    59  57  95 CALM      30.06S
EAU CLAIRE     LGT RAIN  61  58  90 CALM      30.05F
MENOMONIE      MOCLDY    61  58  90 S3        30.05F
NEW RICHMOND   CLEAR     63  55  76 CALM      30.07S
OSCEOLA        CLEAR     64  56  76 CALM      30.09R
$$

WIZ003>005-009-010-017-018-300400-
NORTH CENTRAL WISCONSIN

CITY           SKY/WX    TMP DP  RH WIND       PRES   REMARKS
WOODRUFF       MOCLDY    59  53  80 NW3       30.03S
RHINELANDER    PTCLDY    56  55  97 W3        30.03R
EAGLE RIVER    MOCLDY    56  55  98 CALM      30.02R
LAND O LAKES   PTCLDY    58  52  80 N3        30.03S
PHILLIPS       CLOUDY    57  56  97 CALM      30.02F
TOMAHAWK       MOCLDY    54  53  96 CALM      30.04S FOG
MEDFORD        CLOUDY    56  55  95 W5        30.04S
MERRILL        MOCLDY    56  56 100 CALM      30.02S
$$

WIZ029-030-035-036-043>047-300400-
CENTRAL WISCONSIN

CITY           SKY/WX    TMP DP  RH WIND       PRES   REMARKS
WAUSAU         CLOUDY    60  57  89 NW5       30.00S
MOSINEE        CLOUDY    61  54  77 NW6       30.03R
MARSHFIELD     CLOUDY    60  56  86 W6        30.02F
STEVENS POINT  CLOUDY    61  53  75 CALM      30.02S
WAUPACA        CLOUDY    62  60  93 CALM      30.01S
WAUTOMA        CLOUDY    60  56  87 W3        30.03R
WISC RAPIDS    CLOUDY    62  58  86 W6        30.05R
CAMP DOUGLAS   LGT RAIN  57  57 100 W6        30.05R
$$

WIZ011>013-019>022-031-037>040-048>050-300400-
NORTHEAST WISCONSIN

CITY           SKY/WX    TMP DP  RH WIND       PRES   REMARKS
ANTIGO         PTCLDY    56  55  94 NW6       30.02S
STURGEON BAY   CLOUDY    59  54  82 N5        29.99R
GREEN BAY      MOCLDY    60  58  92 W6        29.98R
MANITOWOC      PTCLDY    61  57  87 MISG      29.98R
APPLETON       MOCLDY    59  57  94 W10       30.00R
CLINTONVILLE   MOCLDY    59  55  88 W5        30.00R
OSHKOSH        PTCLDY    60  57  89 VRB3      30.00R
$$

WIZ032>034-041-042-053>061-300400-
SOUTHWEST WISCONSIN

CITY           SKY/WX    TMP DP  RH WIND       PRES   REMARKS
LA CROSSE      LGT RAIN  65  62  90 NW6       30.05R
SPARTA         MOCLDY    58  57  96 N5        30.06R
VIROQUA        CLOUDY    61  60  96 NW3       30.05S
BOSCOBEL       LGT RAIN  63  59  87 CALM      30.06R
PRAIRIE DU CHI PTCLDY    66  55  67 E5        30.06R
PLATTEVILLE    MOCLDY    63  58  84 NE3       30.07R
$$

WIZ056-057-062-063-064-067-068-300400-
SOUTH CENTRAL WISCONSIN

CITY           SKY/WX    TMP DP  RH WIND       PRES   REMARKS
BARABOO/DELLS  MOCLDY    60  56  86 CALM      30.04R
LONE ROCK      CLOUDY    66  61  84 W5        30.04R
WATERTOWN      PTCLDY    57  56  98 S3        30.02F
MADISON        MOCLDY    64  58  80 NW3       30.04S
MIDDLETON      MOCLDY    63  58  85 CALM      30.04S
MONROE         MOCLDY    64  54  68 NW10      30.04R
JANESVILLE     MOCLDY    64  54  68 CALM      30.03S
$$

WIZ051-052-058>065-066-070>072-300400-
SOUTHEAST WISCONSIN

CITY           SKY/WX    TMP DP  RH WIND       PRES   REMARKS
MILWAUKEE      LGT RAIN  61  57  87 SW6       30.01F
WAUKESHA       CLOUDY    55  54  94 CALM      30.03F
MILWAUKEE/TIMM CLOUDY    59  55  88 CALM      30.01F
RACINE         LGT RAIN  61  58  90 NW3       30.04F
BURLINGTON     CLOUDY    57  56  97 S3        30.04F
KENOSHA        LGT RAIN  60  58  92 NE6       30.04F
FOND DU LAC    PTCLDY    59  56  89 SW8       30.01R
SHEBOYGAN      MOCLDY    59  56  89 W7        29.99R
WEST BEND      PTCLDY    55  54  94 SW3       30.00F
JUNEAU         PTCLDY    57  55  91 SW5       30.04S
$$

LSZ147-162-300400-
LAKE SUPERIOR

STATION/POSITION TIME  TEMP    WIND        PRES    WAVE
                       AIR SEA DIR/SP/G            HT/PER
                 (UTC) (F)     (DEG/KT/KT) (MB)    (FT/S)
W MID LAKE BUOY  0250   46 44  340/  6/  8 1016.8R   0
PORT WING        0200   60     210/  6     1016.9S
SAXON HARBOR     0200          190/  4/  6 1015.9S
$$

LMZ867-665-643>646-300400-
LAKE MICHIGAN

STATION/POSITION TIME  TEMP    WIND        PRES    WAVE
                       AIR SEA DIR/SP/G            HT/PER
                 (UTC) (F)     (DEG/KT/KT) (MB)    (FT/S)
N MID LAKE BUOY  0250   57 54  280/  2/  2 1014.7R   0
NORTHPORT PIER   0200   63      70/  3/  3 1014.6S
SISTER BAY       0225   63      CALM  /  6   N/A
KEWAUNEE LAKESHO 0300   60     290/  5/  7 1015.7R
SHEBOYGAN LAKESH 0300   63     260/ 12/ 15 1015.2R
PORT WASHINGTON  0200   62     270/  5/ 11 1016.6F
ATWATER BUOY     0300   62     240/  8     1016.8F
MILWAUKEE LAKESH 0300   62     230/  7/  8   N/A
S MID LAKE BUOY  0250   62 62  290/ 10/ 12 1016.0R   0
KENOSHA   LAKESH 0300   62     360/  9/ 12 1016.6R
$$

TC  - TEMPERATURE IN CELSIUS
VSB - VISIBILITY IN STATUTE MILES
WCI - WIND CHILL INDEX
HX  - HEAT INDEX




USA.gov is the U.S. government's official web portal to all federal, state and local government web resources and services.